Location: Niagara
(43.2500°N, 79.0670°W)
Time: 21:38:27
(UTC-05:00)

OTV 5 (USA 277) - Pass Details

Date: 12 October 2017
Orbit: 404 x 417 km, 43.0° (Epoch: 07 September)

Event Time Altitude Azimuth Distance (km) Brightness Sun altitude
Rises 21:14:26 0° 268° (W) 2,353 ? -29.0°
Reaches altitude 10° 21:16:32 10° 268° (W) 1,490 ? -29.4°
Enters shadow 21:17:10 15° 268° (W) 1,236 ? -29.5°
